HAWK-11C (62381 NORAD) Tracking and Keplerian Element Data

This shows tracking and keplerian element data for the satellite.

Feedback or suggestion? Click here.




ElementValue
Catalog62381
NameHAWK-11C
Epoch Orbit695
Epoch Day35.24137186
Epoch Year2025
RAAN119.6545
Inclination44.9975
Eccentricity0.0003466
Argument of Perigee254.9213
Mean Anonmoly105.1283
Mean Motion15.19802285
Decay Rate0.00015911
L11 62381U 24247E 25035.24137186 .00015911 00000+0 74085-3 0 9999
L22 62381 44.9975 119.6545 0003466 254.9213 105.1283 15.19802285 6957



Live tracking and technical data element details for HAWK-11C (NORAD 62381). HAWK-11C can be tracked NOW for your location showing map with azimuth and elevation plus other details from your city location.







IsCatalogInMostPopularTable: catalog: 62381, numindb: 10
Update: records affected: 1



GetName: 62381 HAWK-11C

Hit Count: updated at: Sat, 24 May 2025 16:42:11 GMT